Date String (YYYY-MM-DD hh:mm:ss) UTC,Instrument flags,absolute air pressure of the measurement (hPa),sample flow rate (lpm),inlet stack bypass flow (lpm),air temperature of the measurement (°C),ambient temperature measured by the external sensor (°C),aerosol sample conditioner tube jacket temperature (°C),OPC LED temperature (°C),internal box temperature (°C),relative humidity of the measurement (%),span deviation,mass concentration of particles derived from Lorenz-Mie calculation of OPC scattering (μg/m³),mass concentration of particles derived from Lorenz-Mie calculation of OPC scattering (μg/m³),mass concentration of particles derived from Lorenz-Mie calculation of OPC scattering (μg/m³)
DateTimeUTC,F1_M11,P_M11,Q1_M11,Q2_M11,T1_M11,T2_M11,T3_M11,T4_M11,T5_M11,U1_M11,ZSPAN_M11,X0_M11,X2_M11,X1_M11
2023-10-25 02:00:00,SystemResetWarning,0826.6,5.02,000.00,028.6,024.2,000.0,036.9,030.1,21.2,-000.1,0024.28,0007.31,0004.63
2023-10-25 02:01:00,SystemResetWarning,0826.6,5.00,000.00,028.5,024.3,000.0,036.9,029.8,21.3,0000.0,0023.97,0007.11,0004.52
2023-10-25 02:02:00,SystemResetWarning,0826.6,5.00,000.00,028.4,024.7,000.0,036.9,029.8,21.5,0000.0,0024.73,0006.88,0004.41
2023-10-25 02:03:00,SystemResetWarning,0826.6,4.99,000.00,028.3,025.1,000.0,036.9,029.8,21.5,0000.0,0024.36,0006.71,0004.32
2023-10-25 02:04:00,SystemResetWarning,0826.6,5.00,000.00,028.3,025.5,000.0,036.9,029.8,21.5,0000.0,0024.36,0006.64,0004.26
2023-10-25 02:05:00,SystemResetWarning,0826.6,5.01,000.00,028.3,025.8,000.0,036.9,029.8,21.6,0000.0,0023.31,0006.44,0004.20
2023-10-25 02:06:00,SystemResetWarning,0826.6,4.99,000.00,028.3,026.1,000.0,036.9,029.9,21.6,0000.0,0022.24,0006.21,0004.13
2023-10-25 02:07:00,SystemResetWarning,0826.6,5.00,000.00,028.3,026.3,000.0,036.9,029.9,21.5,0000.0,0021.65,0006.12,0004.06
2023-10-25 02:08:00,SystemResetWarning,0826.6,5.00,000.00,028.3,026.5,000.0,036.9,030.0,21.5,0000.0,0021.95,0006.02,0004.00
2023-10-25 02:09:00,SystemResetWarning,0826.6,5.00,000.00,028.3,026.7,000.0,036.8,030.0,21.5,0000.0,0022.22,0005.90,0003.95
2023-10-25 02:10:00,SystemResetWarning,0826.6,5.00,000.00,028.4,026.8,000.0,036.8,030.0,21.4,0000.0,0020.54,0005.76,0003.91
2023-10-25 02:11:00,SystemResetWarning,0826.6,5.00,000.00,028.4,026.9,000.0,036.8,030.1,21.4,0000.0,0019.84,0005.72,0003.88
2023-10-25 02:12:00,SystemResetWarning,0826.6,5.00,000.00,028.4,027.0,000.0,036.8,030.1,21.4,0000.0,0019.59,0005.66,0003.86
2023-10-25 02:13:00,SystemResetWarning,0826.6,5.00,000.00,028.4,027.1,000.0,036.8,030.1,21.4,0000.0,0018.29,0005.61,0003.84
2023-10-25 02:14:00,SystemResetWarning,0826.6,4.99,000.00,028.5,027.2,000.0,036.9,030.2,21.3,0000.0,0017.97,0005.59,0003.82
2023-10-25 02:15:00,SystemResetWarning,0826.7,5.00,000.00,028.5,027.2,000.0,036.9,030.2,21.4,0000.0,0016.88,0005.48,0003.78
2023-10-25 02:16:00,SystemResetWarning,0826.7,5.00,000.00,028.5,027.3,000.0,036.9,030.2,21.4,0000.0,0016.37,0005.38,0003.75
2023-10-25 02:17:00,SystemResetWarning,0826.7,5.00,000.00,028.5,027.3,000.0,036.9,030.3,21.3,0000.0,0016.37,0005.34,0003.74
2023-10-25 02:18:00,SystemResetWarning,0826.8,5.01,000.00,028.5,027.4,000.0,036.9,030.3,21.3,0000.0,0016.28,0005.30,0003.72
2023-10-25 02:19:00,SystemResetWarning,0826.8,5.00,000.00,028.6,027.4,000.0,036.9,030.3,21.3,0000.0,0016.09,0005.28,0003.70
2023-10-25 02:20:00,SystemResetWarning,0826.8,5.01,000.00,028.6,027.4,000.0,036.9,030.3,21.3,0000.0,0015.28,0005.20,0003.68
2023-10-25 02:21:00,SystemResetWarning,0826.8,5.00,000.00,028.6,027.5,000.0,036.9,030.4,21.2,0000.0,0014.53,0005.12,0003.65
2023-10-25 02:22:00,SystemResetWarning,0826.8,5.00,000.00,028.7,027.5,000.0,037.0,030.4,21.2,0000.0,0013.69,0005.01,0003.62
2023-10-25 02:23:00,SystemResetWarning,0826.9,4.98,000.00,028.7,027.5,000.0,037.0,030.4,21.2,0000.0,0013.12,0004.95,0003.60
2023-10-25 02:24:00,SystemResetWarning,0826.9,5.00,000.00,028.7,027.6,000.0,037.0,030.4,21.2,0000.0,0013.20,0004.93,0003.58
2023-10-25 02:25:00,SystemResetWarning,0826.9,5.01,000.00,028.7,027.6,000.0,037.0,030.4,21.2,0000.0,0012.68,0004.88,0003.57
2023-10-25 02:26:00,SystemResetWarning,0826.9,5.01,000.00,028.7,027.6,000.0,037.0,030.5,21.2,0000.0,0012.43,0004.82,0003.57
2023-10-25 02:27:00,SystemResetWarning,0826.9,5.01,000.00,028.8,027.6,000.0,037.1,030.5,21.3,0000.0,0012.06,0004.78,0003.56
2023-10-25 02:28:00,SystemResetWarning,0827.0,4.99,000.00,028.8,027.7,000.0,037.1,030.5,21.3,0000.0,0011.84,0004.74,0003.55
2023-10-25 02:29:00,SystemResetWarning,0827.0,4.98,000.00,028.8,027.7,000.0,037.1,030.5,21.3,0000.0,0011.32,0004.63,0003.54
2023-10-25 02:30:00,SystemResetWarning,0826.9,5.01,000.00,028.8,027.7,000.0,037.1,030.6,21.4,0000.0,0010.32,0004.58,0003.55
2023-10-25 02:31:00,SystemResetWarning,0827.0,5.01,000.00,028.9,027.7,000.0,037.2,030.6,21.4,0000.0,0010.12,0004.56,0003.55
2023-10-25 02:32:00,SystemResetWarning,0827.1,5.00,000.00,028.9,027.7,000.0,037.2,030.6,21.4,0000.0,0010.85,0004.56,0003.56
2023-10-25 02:33:00,SystemResetWarning,0827.1,4.99,000.00,028.9,027.5,000.0,037.2,030.6,21.3,0000.0,0010.96,0004.58,0003.56
2023-10-25 02:34:00,SystemResetWarning,0827.0,5.00,000.00,028.9,025.6,000.0,037.1,030.4,21.4,0000.0,0010.98,0004.58,0003.54
2023-10-25 02:35:00,SystemResetWarning,0827.0,5.01,000.00,028.8,024.4,000.0,037.1,030.2,21.4,0000.0,0010.60,0004.54,0003.54
2023-10-25 02:36:00,SystemResetWarning,0827.1,5.01,000.00,028.6,024.4,000.0,037.0,030.0,21.5,0000.0,0010.51,0004.51,0003.53
2023-10-25 02:37:00,SystemResetWarning,0827.0,5.00,000.00,028.5,024.7,000.0,037.0,029.9,21.6,0000.0,0010.65,0004.51,0003.53
2023-10-25 02:38:00,SystemResetWarning,0827.1,5.00,000.00,028.5,025.1,000.0,037.0,029.9,21.7,0000.0,0010.93,0004.50,0003.53
2023-10-25 02:39:00,SystemResetWarning,0827.1,5.00,000.00,028.4,025.5,000.0,037.0,029.9,21.8,0000.0,0010.98,0004.51,0003.52
2023-10-25 02:40:00,SystemResetWarning,0827.1,5.00,000.00,028.4,025.8,000.0,037.0,029.9,22.0,0000.0,0011.11,0004.52,0003.51
2023-10-25 02:41:00,SystemResetWarning,0827.2,4.99,000.00,028.4,026.1,000.0,037.0,029.9,22.0,0000.0,0011.21,0004.53,0003.51
2023-10-25 02:42:00,SystemResetWarning,0827.1,5.00,000.00,028.4,026.4,000.0,037.0,030.0,22.0,0000.0,0010.89,0004.50,0003.51
2023-10-25 02:43:00,SystemResetWarning,0827.2,5.00,000.00,028.4,026.6,000.0,037.0,030.0,21.9,0000.0,0010.25,0004.50,0003.49
2023-10-25 02:44:00,SystemResetWarning,0827.2,5.01,000.00,028.4,026.7,000.0,037.0,030.1,21.9,0000.0,0009.99,0004.50,0003.49
2023-10-25 02:45:00,SystemResetWarning,0827.1,4.99,000.00,028.4,026.9,000.0,037.0,030.1,21.8,0000.0,0009.62,0004.47,0003.49
2023-10-25 02:46:00,SystemResetWarning,0827.2,5.00,000.00,028.5,027.0,000.0,036.9,030.1,21.8,0000.0,0009.38,0004.46,0003.50
2023-10-25 02:47:00,SystemResetWarning,0827.2,4.99,000.00,028.5,027.1,000.0,036.9,030.2,21.8,0000.0,0009.36,0004.50,0003.50
2023-10-25 02:48:00,SystemResetWarning,0827.3,5.00,000.00,028.5,027.2,000.0,037.0,030.2,21.9,0000.0,0010.09,0004.52,0003.49
2023-10-25 02:49:00,SystemResetWarning,0827.2,5.00,000.00,028.5,027.2,000.0,037.0,030.2,21.9,0000.0,0010.07,0004.58,0003.49
2023-10-25 02:50:00,SystemResetWarning,0827.2,5.00,000.00,028.6,027.3,000.0,037.0,030.2,21.9,0000.0,0010.85,0004.58,0003.49
2023-10-25 02:51:00,SystemResetWarning,0827.3,5.01,000.00,028.6,027.3,000.0,037.0,030.3,21.9,0000.0,0011.06,0004.60,0003.50
2023-10-25 02:52:00,SystemResetWarning,0827.3,5.00,000.00,028.6,027.4,000.0,037.0,030.3,21.8,0000.0,0011.19,0004.64,0003.51
2023-10-25 02:53:00,SystemResetWarning,0827.3,5.00,000.00,028.6,027.4,000.0,037.0,030.3,21.8,0000.0,0011.49,0004.64,0003.51
2023-10-25 02:54:00,SystemResetWarning,0827.4,5.00,000.00,028.7,027.4,000.0,037.0,030.4,21.8,0000.0,0011.74,0004.67,0003.53
2023-10-25 02:55:00,SystemResetWarning,0827.4,4.99,000.00,028.7,027.5,000.0,037.0,030.4,21.8,0000.0,0011.90,0004.67,0003.54
2023-10-25 02:56:00,SystemResetWarning,0827.4,5.00,000.00,028.7,027.5,000.0,037.0,030.4,21.8,0000.0,0013.25,0004.70,0003.54
2023-10-25 02:57:00,SystemResetWarning,0827.4,4.99,000.00,028.7,027.5,000.0,037.0,030.4,21.7,0000.0,0013.48,0004.72,0003.54
2023-10-25 02:58:00,SystemResetWarning,0827.4,5.00,000.00,028.7,027.5,000.0,037.1,030.4,21.7,0000.0,0014.51,0004.70,0003.55
2023-10-25 02:59:00,SystemResetWarning,0827.5,4.99,000.00,028.7,027.5,000.0,037.1,030.4,21.7,0000.0,0013.99,0004.72,0003.56
